FW1924 Weather Reports


Display with metric or nautical units.
time (UTC)temp
F
wind
direction
speed
MPH
gust
MPH
rain 1hr
in
rain 24hr
in
rain mn
in
humidity
%
barometer
mb
20260902043028 68 215 0.0 9.0 0.00 0.04 0.04 52 1004.0
20260902041507 68 197 1.0 10.0 0.00 0.04 0.04 52 1003.9
20260902040007 69 194 0.0 6.0 0.00 0.04 0.04 51 1004.1
20260902034601 70 182 0.0 5.0 0.00 0.05 0.04 53 1003.9
20260902033052 71 178 3.0 10.0 0.00 0.05 0.04 53 1003.8
20260902031548 71 165 5.0 12.0 0.00 0.05 0.04 52 1003.8
20260902030034 72 158 8.0 14.0 0.00 0.05 0.04 51 1003.5
20260902024543 72 200 5.0 14.0 0.00 0.06 0.04 50 1003.4
20260902023027 73 186 6.0 14.0 0.00 0.06 0.04 49 1003.4
20260902021526 73 155 5.0 14.0 0.00 0.06 0.04 47 1003.4
20260902020026 74 177 7.0 16.0 0.00 0.06 0.04 46 1003.4
20260902014518 74 148 6.0 16.0 0.00 0.06 0.04 45 1003.4
20260902013009 75 153 10.0 19.0 0.00 0.06 0.04 43 1003.4
20260902011601 75 170 7.0 19.0 0.00 0.06 0.04 44 1003.5
20260902010009 76 119 6.0 21.0 0.00 0.06 0.04 44 1003.6
20260902004513 77 108 13.0 24.0 0.00 0.07 0.04 42 1003.7
20260902003005 77 150 11.0 21.0 0.00 0.07 0.04 41 1004.0
20260902001556 78 144 12.0 19.0 0.00 0.07 0.04 41 1004.1
20260902000047 78 180 14.0 22.0 0.00 0.07 0.04 41 1004.3
20260901234539 78 155 11.0 25.0 0.00 0.09 0.04 40 1004.3
20260901233038 79 148 14.0 21.0 0.00 0.09 0.04 39 1004.5
20260901231535 80 137 10.0 23.0 0.00 0.09 0.04 40 1004.7
20260901230026 80 170 9.0 20.0 0.00 0.09 0.04 40 1004.8
20260901224522 81 121 10.0 23.0 0.00 0.09 0.04 39 1004.8
20260901223009 81 121 7.0 24.0 0.00 0.09 0.04 39 1005.4
20260901221601 80 119 12.0 21.0 0.00 0.09 0.04 40 1005.5
20260901220126 80 155 10.0 19.0 0.00 0.09 0.04 38 1005.4
20260901214552 81 159 8.0 33.0 0.00 0.09 0.04 40 1006.0
20260901213051 81 157 11.0 24.0 0.00 0.09 0.04 38 1006.2
20260901211538 80 145 17.0 26.0 0.00 0.09 0.04 39 1006.3
20260901210030 79 208 12.0 25.0 0.00 0.09 0.04 42 1006.7
20260901204528 80 155 9.0 21.0 0.00 0.09 0.04 42 1006.8
20260901203010 79 91 7.0 18.0 0.00 0.09 0.04 44 1007.0
20260901201607 78 156 14.0 21.0 0.00 0.09 0.04 46 1007.4
20260901200058 78 165 8.0 18.0 0.00 0.09 0.04 46 1007.7
20260901194551 76 154 13.0 24.0 0.00 0.09 0.04 46 1007.8
20260901193043 75 146 11.0 21.0 0.00 0.09 0.04 51 1008.0
20260901191544 73 145 12.0 24.0 0.00 0.09 0.04 51 1008.2
20260901190026 73 159 9.0 25.0 0.00 0.09 0.04 51 1008.3
20260901184532 73 138 12.0 20.0 0.00 0.09 0.04 50 1008.5
20260901183019 74 140 9.0 17.0 0.01 0.09 0.04 50 1008.4
20260901181530 74 163 13.0 25.0 0.01 0.09 0.04 49 1008.7
20260901180015 73 157 14.0 25.0 0.01 0.09 0.04 50 1009.0
20260901174539 73 163 13.0 19.0 0.01 0.09 0.04 53 1008.7
20260901173003 72 135 10.0 25.0 0.00 0.08 0.03 55 1008.6
20260901171552 72 132 13.0 25.0 0.00 0.08 0.03 54 1008.7
20260901170040 69 144 9.0 24.0 0.00 0.08 0.03 62 1008.8
20260901164541 67 165 2.0 18.0 0.00 0.08 0.03 65 1008.8
20260901163033 66 147 3.0 18.0 0.00 0.08 0.03 65 1008.8
20260901161532 66 173 1.0 14.0 0.00 0.08 0.03 65 1008.9
20260901160036 65 164 6.0 13.0 0.01 0.08 0.03 63 1008.8
20260901154511 65 160 2.0 12.0 0.01 0.08 0.03 65 1008.7
20260901153002 64 144 3.0 15.0 0.01 0.08 0.03 65 1008.6
20260901151554 63 144 13.0 20.0 0.01 0.08 0.03 65 1008.6
20260901150039 62 141 5.0 15.0 0.00 0.07 0.02 68 1008.9
20260901144528 61 146 9.0 20.0 0.00 0.07 0.02 68 1008.6
20260901143020 60 159 8.0 15.0 0.00 0.07 0.02 71 1008.7
20260901141508 59 173 0.0 8.0 0.00 0.07 0.02 73 1008.7
20260901140100 58 183 0.0 1.0 0.00 0.07 0.02 72 1008.5
20260901134554 58 196 0.0 7.0 0.00 0.07 0.02 71 1008.5
20260901133045 58 184 0.0 9.0 0.00 0.07 0.02 71 1008.3
20260901131535 58 188 2.0 10.0 0.00 0.07 0.02 71 1008.3
20260901130029 58 205 2.0 11.0 0.00 0.07 0.02 71 1008.2
20260901124530 58 200 1.0 12.0 0.00 0.07 0.02 71 1008.1
20260901123033 58 217 2.0 11.0 0.00 0.07 0.02 72 1008.2
20260901121506 58 186 7.0 19.0 0.00 0.07 0.02 72 1008.2
20260901114555 58 207 7.0 15.0 0.00 0.07 0.02 73 1008.0
20260901113012 58 186 6.0 14.0 0.00 0.07 0.02 74 1008.0
20260901111510 58 185 4.0 14.0 0.00 0.07 0.02 74 1008.1
20260901110002 58 228 6.0 14.0 0.00 0.07 0.02 75 1008.2
20260901104553 57 182 5.0 14.0 0.00 0.07 0.02 76 1008.3
20260901103146 57 203 2.0 12.0 0.00 0.07 0.02 77 1008.4
20260901101545 57 215 0.0 5.0 0.01 0.07 0.02 77 1008.5
20260901100043 57 194 0.0 1.0 0.01 0.07 0.02 76 1008.6
20260901094629 58 176 0.0 7.0 0.01 0.07 0.02 76 1008.6
20260901093027 58 192 0.0 7.0 0.01 0.07 0.02 75 1008.5
20260901091519 58 194 1.0 11.0 0.00 0.06 0.01 76 1008.4
20260901090013 58 191 0.0 0.0 0.00 0.06 0.01 74 1008.5
20260901084609 59 170 0.0 7.0 0.00 0.06 0.01 74 1008.4
20260901083016 59 166 5.0 13.0 0.00 0.06 0.01 73 1008.5
20260901081505 59 170 4.0 11.0 0.00 0.06 0.01 73 1008.6
20260901080008 60 157 9.0 15.0 0.01 0.06 0.01 72 1008.5
20260901074558 60 168 1.0 9.0 0.01 0.06 0.01 73 1008.7
20260901073027 60 169 7.0 14.0 0.01 0.06 0.01 73 1008.7
20260901071613 60 196 8.0 16.0 0.01 0.06 0.01 73 1008.8
20260901070019 60 174 0.0 4.0 0.00 0.05 0.00 74 1008.7
20260901064518 60 166 0.0 11.0 0.00 0.05 0.00 74 1008.7
20260901063008 59 185 5.0 16.0 0.00 0.05 0.00 74 1008.7
20260901061626 59 0.0 0.0 0.00 0.05 0.00 75 1008.9
20260901060057 60 155 1.0 11.0 0.00 0.05 0.00 75 1008.8
20260901054548 60 188 4.0 10.0 0.00 0.05 0.05 75 1008.9
20260901053047 60 147 5.0 10.0 0.00 0.05 0.05 75 1008.7
20260901051538 60 170 4.0 10.0 0.00 0.05 0.05 75 1009.3
20260901050031 60 174 4.0 10.0 0.00 0.05 0.05 74 1009.7
20260901044524 60 196 8.0 15.0 0.00 0.05 0.05 73 1009.6